Location: Kerb�bon
(47.7970°N, 3.3487°W)
Time: 11:34:37
(UTC+00:00)

Terra - Pass Details

Date: 12 May 2021
Orbit: 701 x 703 km, 98.2° (Epoch: 18 June)

Event Time Altitude Azimuth Distance (km) Brightness Sun altitude
Exits shadow 20:37:05 - 105° (ESE) 2,324 3.9 -8.6°
Reaches altitude 10° 20:37:38 10° 100° (E) 2,173 3.8 -8.6°
Maximum altitude 20:40:44 18° 59° (ENE) 1,718 3.7 -9.0°
Drops below altitude 10° 20:43:51 10° 18° (NNE) 2,182 4.7 -9.4°
Sets 20:46:46 0° 360° (N) 3,106 5.8 -9.8°
